Tracking 18673 objects as of 25-June-2017
HD Live streaming from Space Station
objects crossing your sky now

OPS 8314 (2)

Track OPS 8314 (2) now!
10-day predictions
OPS 8314 (2) is classified as:


NORAD ID: 6822
Int'l Code: 1972-079C
Perigee: 1,424.8 km
Apogee: 1,472.4 km
Inclination: 95.7 °
Period: 114.7 minutes
Semi major axis: 7819 km
RCS: 0.3198 m2 (medium)
Launch date: October 10, 1972
Source: United States (US)
Launch site: AIR FORCE WESTERN TEST RANGE (AFWTR)
Your satellite tracking list
Your tracking list is empty





NASA's NSSDC Master Catalog

Two Line Element Set (TLE):
1  6822U 72079C   17175.49024490 +.00000017 +00000-0 +17642-3 0  9997
2  6822 095.6525 253.5979 0030427 158.6129 266.4638 12.55517541048137
Source of the keplerian elements: AFSPC